DW7040 Weather Reports


time (UTC)temp
F
wind
direction
speed
knots
gust
knots
rain 1hr
in
rain 24hr
in
rain mn
in
humidity
%
barometer
mb
20260506010015 0 197 0.0 0.9 0.00 0.00 0.00 1005.6
20260506004505 0 196 0.9 1.7 0.00 0.00 0.00 1005.8
20260506003114 0 197 0.9 1.7 0.00 0.00 0.00 1005.8
20260506001541 0 197 0.9 1.7 0.00 0.00 0.00 1005.8
20260506000036 0 197 0.0 0.9 0.00 0.00 0.00 1005.8
20260505234534 0 197 0.0 0.9 0.00 0.00 0.00 1005.9
20260505233027 0 197 0.0 0.9 0.00 0.00 0.00 1005.8
20260505231522 0 197 0.0 0.0 0.00 0.00 0.00 1005.9
20260505230025 0 197 0.9 1.7 0.00 0.00 0.00 1006.0
20260505224514 0 196 0.0 0.0 0.00 0.00 0.00 1006.1
20260505223009 0 196 0.0 0.0 0.00 0.00 0.00 1006.2
20260505221506 0 197 0.0 0.0 0.00 0.00 0.00 1006.2
20260505220002 0 196 0.0 0.0 0.00 0.00 0.00 1006.3
20260505214549 0 197 0.0 0.0 0.00 0.00 0.00 1006.3
20260505213019 0 197 0.0 0.0 0.00 0.00 0.00 1006.4
20260505211505 0 197 0.0 1.7 0.00 0.00 0.00 1006.3
20260505210100 0 197 1.7 1.7 0.00 0.00 0.00 1006.3
20260505204555 0 196 1.7 1.7 0.00 0.00 0.00 1006.3
20260505203051 0 197 0.9 1.7 0.00 0.00 0.00 1006.4
20260505201552 0 197 0.9 1.7 0.00 0.00 0.00 1006.4
20260505200042 0 196 2.6 2.6 0.00 0.00 0.00 1006.3
20260505194538 0 197 0.9 1.7 0.00 0.00 0.00 1006.3
20260505193015 0 197 0.9 2.6 0.00 0.00 0.00 1006.2
20260505191511 0 197 1.7 3.5 0.00 0.00 0.00 1006.0
20260505190057 0 197 0.9 3.5 0.00 0.00 0.00 1005.9
20260505184504 0 195 2.6 6.1 0.00 0.00 0.00 1005.9
20260505183108 0 195 3.5 7.0 0.00 0.00 0.00 1005.9
20260505181539 0 195 6.1 8.7 0.00 0.00 0.00 1005.9
20260505180100 0 195 6.1 10.4 0.00 0.00 0.00 1005.9
20260505174555 0 195 4.3 6.1 0.00 0.00 0.00 1005.9
20260505173054 0 195 2.6 9.6 0.00 0.00 0.00 1006.0
20260505171556 0 195 4.3 8.7 0.00 0.00 0.00 1006.2
20260505170042 0 197 4.3 11.3 0.00 0.00 0.00 1006.2
20260505164521 0 197 5.2 8.7 0.00 0.00 0.00 1006.2
20260505163010 0 197 7.8 11.3 0.00 0.00 0.00 1006.2
20260505161536 0 197 6.1 12.2 0.00 0.00 0.00 1006.2
20260505153017 0 195 5.2 10.4 0.00 0.00 0.00 1006.3
20260505151512 0 195 7.8 15.6 0.00 0.00 0.00 1006.2
20260505124600 0 195 7.8 13.9 0.00 0.00 0.00 1006.4
20260505123047 0 195 4.3 10.4 0.00 0.00 0.00 1006.6
20260505121546 0 195 3.5 8.7 0.00 0.00 0.00 1006.5
20260505120100 0 195 4.3 9.6 0.00 0.00 0.00 1006.6
20260505114536 0 195 6.1 8.7 0.00 0.00 0.00 1006.7
20260505113035 0 195 6.1 9.6 0.00 0.00 0.00 1006.7
20260505111528 0 195 5.2 8.7 0.00 0.00 0.00 1006.6
20260505101556 0 195 3.5 7.8 0.00 0.00 0.00 1006.8
20260505100042 0 195 5.2 9.6 0.00 0.00 0.00 1006.8
20260505094542 0 195 4.3 7.0 0.00 0.00 0.00 1006.8
20260505093042 0 195 6.1 10.4 0.00 0.00 0.00 1006.7
20260505091538 0 195 2.6 7.0 0.00 0.00 0.00 1006.7
20260505090044 0 195 3.5 7.0 0.00 0.00 0.00 1006.7
20260505084533 0 195 3.5 7.0 0.00 0.00 0.00 1006.7
20260505083028 0 195 1.7 3.5 0.00 0.00 0.00 1006.8
20260505081524 0 195 1.7 5.2 0.00 0.00 0.00 1006.7
20260505080018 0 195 0.9 2.6 0.00 0.00 0.00 1006.8
20260505074513 0 195 0.0 1.7 0.00 0.00 0.00 1006.7
20260505073012 0 195 0.9 2.6 0.00 0.00 0.00 1006.7
20260505071514 0 195 0.0 0.9 0.00 0.00 0.00 1006.7
20260505070104 0 195 0.0 0.0 0.00 0.00 0.00 1006.8
20260505064555 0 195 0.0 0.9 0.00 0.00 0.00 1006.8
20260505063044 0 195 0.0 0.0 0.00 0.00 0.00 1006.9
20260505061529 0 195 0.0 0.0 0.00 0.00 0.00 1006.8
20260505060013 0 195 0.0 1.7 0.00 0.00 0.00 1006.7
20260505054607 0 195 0.9 3.5 0.00 0.00 0.00 1006.7
20260505053056 0 195 1.7 3.5 0.00 0.00 0.00 1006.6
20260505051537 0 195 1.7 2.6 0.00 0.00 0.00 1006.5
20260505041559 0 197 0.0 0.9 0.00 0.00 0.00 1006.6
20260505040049 0 197 0.0 1.7 0.00 0.00 0.00 1006.5
20260505034511 0 197 0.9 2.6 0.00 0.00 0.00 1006.4
20260505033005 0 197 1.7 2.6 0.00 0.00 0.00 1006.4
20260505031611 0 197 0.9 1.7 0.00 0.00 0.00 1006.5
20260505030030 0 197 0.0 1.7 0.00 0.00 0.00 1006.6
20260505024533 0 197 0.9 1.7 0.00 0.00 0.00 1006.6
20260505023036 0 196 0.0 0.0 0.00 0.00 0.00 1006.6
20260505021600 0 197 0.0 0.0 0.00 0.00 0.00 1006.7
20260505021502 0 196 0.0 0.0 0.00 0.00 0.00 1006.7
20260505020044 0 197 0.0 0.0 0.00 0.00 0.00 1006.8
20260505014544 0 197 0.9 0.9 0.00 0.00 0.00 1006.8
20260505013049 0 197 0.0 0.9 0.00 0.00 0.00 1007.0
20260505011543 0 197 1.7 2.6 0.00 0.00 0.00 1006.9